[[{"header":{"parameterUnit":"m.s-1","parameterCategory":1,"la1":30.2991,"la2":30.254,"lo1":-89.0895,"lo2":-89.0444,"dy":0.0017,"dx":0.0017,"nx":28,"ny":28,"refTime":"2023-07-19T03:00:00:Z","depth":0,"parameterNumber":2,"parameterNumberName":"U-component_of_WINDS"},"data":[0,0,0,0,0,0,0,0,0,0,0,0,0,0,0,0,0,0,0,0,0,0,0,0,0,0,0,0,0,0,0,0,0,0,0,0,0,0,0,0,0,0,0,0,0,0,0,0,0,0,0,0,0,0,0,0,0,0,-0.1003,-0.1002,0,-0.0888,-0.0887,-0.0886,-0.084,-0.0841,-0.0841,-0.0841,-0.0723,-0.0719,-0.0716,0,0,0,0,0,0,0,0,0,0,0,0,0,-0.1185,-0.1182,-0.1004,-0.1002,-0.1001,-0.0888,-0.0887,-0.0885,-0.084,-0.0841,-0.0841,-0.0841,-0.0724,-0.072,-0.0715,0,0,0,0,0,0,0,0,0,0,0,0,0,-0.1092,-0.1181,-0.1004,-0.0965,-0.096,-0.0889,-0.0887,-0.0885,-0.084,-0.0841,-0.0841,-0.0841,-0.0725,-0.072,-0.0715,-0.0674,0,0,-0.0699,-0.0697,0,0,0,0,0,0,0,0,-0.1097,-0.1085,-0.0972,-0.0967,-0.0962,-0.0879,-0.0907,-0.0814,-0.084,-0.0886,-0.0841,-0.0842,-0.0774,-0.0765,-0.0742,-0.0668,-0.0663,-0.0699,-0.0696,-0.0693,-0.0692,0,0,0,0,0,0,0,-0.1104,-0.109,-0.0958,-0.097,-0.0964,-0.0953,-0.094,-0.089,-0.0829,-0.0882,-0.0878,-0.0865,-0.0772,-0.0747,-0.0739,-0.0662,-0.0699,-0.0694,-0.0691,-0.0689,-0.0549,-0.0548,0,0,0,0,0,0,-0.1117,-0.1096,-0.0962,-0.0954,-0.1032,-0.0949,-0.0935,-0.0905,-0.0829,-0.0818,-0.0865,-0.0863,-0.0756,-0.0745,-0.0735,-0.0682,-0.0693,-0.0689,-0.0686,-0.0549,-0.0549,-0.0548,0,0,0,0,0,0,-0.1121,-0.1105,-0.0966,-0.1024,-0.1006,-0.0946,-0.0913,-0.0903,-0.0878,-0.0816,-0.0805,-0.0851,-0.0756,-0.0742,-0.069,-0.0677,-0.0686,-0.0682,-0.055,-0.0549,-0.0548,-0.0576,0,0,0,0,0,0,-0.1126,-0.1107,-0.109,-0.1024,-0.1003,-0.0923,-0.0912,-0.09,-0.087,-0.0867,-0.0801,-0.079,-0.0755,-0.0698,-0.0685,-0.067,-0.0677,-0.0551,-0.055,-0.0549,-0.0576,-0.0576,-0.0577,0,0,0,0,0,-0.1133,-0.1103,-0.109,-0.1074,-0.0981,-0.0922,-0.091,-0.087,-0.0869,-0.0852,-0.0813,-0.0792,-0.0681,-0.0693,-0.0677,-0.0662,-0.0552,-0.055,-0.0549,-0.0576,-0.0576,-0.0577,0,0,0,0,0,0,-0.1169,-0.1093,-0.1078,-0.1026,-0.0981,-0.0915,-0.0892,-0.0872,-0.0826,-0.0825,-0.0778,-0.0764,-0.0715,-0.0683,-0.0697,-0.0618,-0.0615,-0.061,-0.0641,-0.0641,-0.0641,-0.0649,-0.0673,0,0,0,0,0,-0.1171,-0.113,-0.1066,-0.1026,-0.1004,-0.0952,-0.0925,-0.0899,-0.085,-0.0831,-0.0787,-0.0741,-0.0695,-0.0666,-0.0621,-0.0572,-0.0557,-0.0554,-0.0554,-0.0554,-0.0551,-0.0523,-0.0521,-0.0543,-0.0543,-0.0543,0,0,-0.1174,-0.1128,-0.1104,-0.1032,-0.0994,-0.0952,-0.0936,-0.0893,-0.0861,-0.0824,-0.0772,-0.0738,-0.0684,-0.0633,-0.0608,-0.0605,-0.0541,-0.0553,-0.0553,-0.0549,-0.0521,-0.0519,-0.0517,-0.0542,-0.0543,-0.0543,0,0,-0.1159,-0.112,-0.1082,-0.1045,-0.0988,-0.0954,-0.0945,-0.0882,-0.0858,-0.0805,-0.0777,-0.0739,-0.0662,-0.0624,-0.0595,-0.0567,-0.0547,-0.0554,-0.0554,-0.0528,-0.0526,-0.0524,-0.0514,-0.0511,-0.055,-0.055,-0.0551,0,-0.117,-0.1106,-0.1065,-0.1023,-0.0993,-0.0957,-0.0919,-0.0885,-0.0816,-0.0796,-0.0793,-0.0696,-0.0656,-0.0596,-0.059,-0.0567,-0.0556,-0.056,-0.053,-0.0527,-0.0525,-0.0515,-0.0511,-0.0552,-0.0552,-0.0551,-0.0551,0,-0.1123,-0.1079,-0.1056,-0.0991,-0.0957,-0.0917,-0.0871,-0.0842,-0.0819,-0.0785,-0.0732,-0.0684,-0.0629,-0.0613,-0.0589,-0.0549,-0.0549,-0.0539,-0.0534,-0.0525,-0.0514,-0.051,-0.0553,-0.0553,-0.0553,-0.0552,0,0,-0.1126,-0.104,-0.1032,-0.1002,-0.0937,-0.0903,-0.0862,-0.0808,-0.0784,-0.0738,-0.0703,-0.0639,-0.0629,-0.0596,-0.0569,-0.0545,-0.0527,-0.0537,-0.0535,-0.0537,-0.048,-0.0488,-0.0484,-0.0513,-0.0512,-0.0512,-0.0484,0,-0.1103,-0.1027,-0.099,-0.0931,-0.089,-0.0857,-0.0821,-0.0778,-0.0746,-0.0707,-0.0671,-0.0627,-0.0617,-0.0597,-0.0573,-0.0534,-0.0514,-0.0536,-0.048,-0.0478,-0.0494,-0.0478,-0.0486,-0.0463,-0.048,-0.0479,-0.0479,0,-0.1064,-0.1019,-0.0956,-0.0897,-0.0878,-0.0847,-0.0795,-0.0758,-0.0708,-0.0687,-0.0651,-0.0624,-0.058,-0.0579,-0.0518,-0.0533,-0.0509,-0.0486,-0.0484,-0.0477,-0.0477,-0.047,-0.0454,-0.0451,-0.0472,-0.0473,-0.0473,0,-0.1073,-0.0996,-0.0949,-0.0924,-0.0854,-0.0833,-0.0802,-0.0753,-0.0723,-0.0678,-0.0659,-0.0609,-0.0582,-0.0544,-0.0505,-0.0508,-0.0448,-0.0444,-0.0428,-0.0429,-0.0416,-0.0417,-0.0396,-0.0401,-0.0401,-0.0401,-0.0402,0,-0.1049,-0.1012,-0.0952,-0.0922,-0.088,-0.0838,-0.0797,-0.0764,-0.0721,-0.0685,-0.0654,-0.0621,-0.0571,-0.0532,-0.0502,-0.0456,-0.0444,-0.0425,-0.0417,-0.0427,-0.043,-0.041,-0.041,-0.04,-0.0401,-0.0401,-0.0401,0,-0.1052,-0.1009,-0.0956,-0.0894,-0.0877,-0.0849,-0.0796,-0.0766,-0.0733,-0.0688,-0.0675,-0.0623,-0.0576,-0.0533,-0.047,-0.045,-0.0403,-0.0393,-0.0419,-0.0415,-0.0402,-0.0404,-0.0366,-0.0359,-0.037,-0.037,-0.037,0,-0.1039,-0.101,-0.0945,-0.0919,-0.0889,-0.0847,-0.0817,-0.0775,-0.0744,-0.0686,-0.0664,-0.0614,-0.0572,-0.0498,-0.0455,-0.0407,-0.0395,-0.0385,-0.0388,-0.0399,-0.0395,-0.0397,-0.0394,-0.0386,-0.0386,-0.0386,-0.0386,0,-0.1022,-0.1003,-0.096,-0.0911,-0.0875,-0.0834,-0.0792,-0.0773,-0.0723,-0.0691,-0.0642,-0.0609,-0.0545,-0.0496,-0.0444,-0.0412,-0.0391,-0.0386,-0.0379,-0.0389,-0.0406,-0.0397,-0.042,-0.0386,-0.0386,-0.0386,-0.0386,-0.0386,-0.1016,-0.0989,-0.0939,-0.0893,-0.0857,-0.0818,-0.0788,-0.0751,-0.071,-0.0655,-0.0632,-0.0583,-0.0535,-0.0462,-0.0431,-0.0392,-0.0387,-0.0379,-0.0376,-0.0375,-0.0376,-0.0413,-0.0382,-0.0382,-0.0382,-0.0382,-0.0382,0,-0.0997,-0.0963,-0.0922,-0.0864,-0.0828,-0.0811,-0.0764,-0.0735,-0.0692,-0.0649,-0.0608,-0.0553,-0.0506,-0.0459,-0.0409,-0.0387,-0.0376,-0.0375,-0.0376,-0.0369,-0.0383,-0.0393,-0.0385,-0.0385,-0.0385,-0.0385,-0.0385,-0.0385,-0.0983,-0.0936,-0.0911,-0.0846,-0.0812,-0.0764,-0.0738,-0.0703,-0.0668,-0.0608,-0.0568,-0.0539,-0.0494,-0.0441,-0.0397,-0.0385,-0.0368,-0.037,-0.0355,-0.0368,-0.0368,-0.0369,-0.0378,-0.0367,-0.0367,-0.0344,-0.0344,-0.0344]},{"header":{"parameterUnit":"m.s-1","parameterCategory":1,"la1":30.2991,"la2":30.254,"lo1":-89.0895,"lo2":-89.0444,"dy":0.0017,"dx":0.0017,"nx":28,"ny":28,"refTime":"2023-07-19T03:00:00:Z","depth":0,"parameterNumber":3,"parameterNumberName":"V-component_of_WINDS"},"data":[0,0,0,0,0,0,0,0,0,0,0,0,0,0,0,0,0,0,0,0,0,0,0,0,0,0,0,0,0,0,0,0,0,0,0,0,0,0,0,0,0,0,0,0,0,0,0,0,0,0,0,0,0,0,0,0,0,0,5.3692,5.3691,0,5.3615,5.3614,5.3613,5.3508,5.3507,5.3505,5.3503,5.3421,5.3421,5.342,0,0,0,0,0,0,0,0,0,0,0,0,0,5.3748,5.3748,5.3692,5.3691,5.369,5.3615,5.3614,5.3613,5.3509,5.3507,5.3505,5.3503,5.3421,5.3421,5.342,0,0,0,0,0,0,0,0,0,0,0,0,0,5.3703,5.3748,5.3693,5.3629,5.3623,5.3615,5.3614,5.3612,5.3509,5.3507,5.3504,5.3502,5.3421,5.3421,5.342,5.3467,0,0,5.3417,5.3417,0,0,0,0,0,0,0,0,5.3705,5.3701,5.364,5.3634,5.3627,5.3569,5.3603,5.3563,5.351,5.3552,5.3503,5.35,5.3472,5.3467,5.3458,5.3463,5.3459,5.3417,5.3417,5.3416,5.3416,0,0,0,0,0,0,0,5.3709,5.3703,5.3661,5.3639,5.3631,5.3604,5.3595,5.3595,5.3528,5.3548,5.3541,5.3533,5.3468,5.3459,5.3455,5.3458,5.3417,5.3416,5.3416,5.3415,5.3497,5.35,0,0,0,0,0,0,5.3722,5.3707,5.3664,5.3659,5.366,5.3606,5.3595,5.359,5.3527,5.3515,5.3535,5.3529,5.3462,5.3456,5.3452,5.3503,5.3416,5.3415,5.3415,5.3495,5.3498,5.3501,0,0,0,0,0,0,5.3723,5.3719,5.3667,5.3681,5.3672,5.3607,5.3602,5.359,5.3581,5.3518,5.3505,5.3539,5.346,5.3453,5.3464,5.3499,5.3415,5.3414,5.3491,5.3496,5.3499,5.3605,0,0,0,0,0,0,5.3725,5.372,5.3738,5.3682,5.3672,5.3682,5.3604,5.359,5.358,5.357,5.3517,5.3506,5.3457,5.3466,5.3463,5.3496,5.3414,5.3488,5.3493,5.3498,5.3598,5.3613,5.3625,0,0,0,0,0,5.3728,5.377,5.3739,5.3734,5.3693,5.3684,5.3678,5.3621,5.3583,5.36,5.3559,5.3508,5.3495,5.3468,5.3464,5.3497,5.3486,5.3492,5.3498,5.3593,5.361,5.3624,0,0,0,0,0,0,5.383,5.3761,5.3726,5.3752,5.3725,5.3666,5.3686,5.3641,5.3623,5.3615,5.3544,5.3533,5.3553,5.3526,5.3496,5.3539,5.3483,5.3488,5.3556,5.3572,5.3585,5.3591,5.3413,0,0,0,0,0,5.3856,5.3855,5.3795,5.3823,5.3811,5.3751,5.3745,5.3704,5.3672,5.366,5.362,5.3591,5.358,5.3574,5.3561,5.3594,5.3581,5.3615,5.3628,5.3639,5.3644,5.366,5.3674,5.3521,5.3521,5.352,0,0,5.3909,5.3871,5.3875,5.3843,5.3817,5.3817,5.3742,5.3745,5.3744,5.366,5.3668,5.3638,5.36,5.3623,5.3631,5.3601,5.3684,5.3646,5.3656,5.3655,5.3668,5.3682,5.3695,5.3525,5.3524,5.3523,0,0,5.4005,5.3977,5.3998,5.3973,5.3935,5.3895,5.39,5.3849,5.3826,5.3833,5.377,5.3767,5.3751,5.3727,5.3712,5.3801,5.3752,5.3798,5.3866,5.3882,5.3894,5.3905,5.3937,5.3949,5.3804,5.3804,5.3804,0,5.4076,5.4074,5.4014,5.4021,5.4009,5.3934,5.3954,5.3933,5.3893,5.3886,5.3853,5.3831,5.38,5.3816,5.3838,5.3828,5.3832,5.3804,5.3898,5.3908,5.3916,5.3946,5.3958,5.381,5.3809,5.3809,5.3808,0,5.4163,5.4163,5.4184,5.4148,5.4138,5.4152,5.4093,5.409,5.405,5.4014,5.4022,5.3983,5.396,5.3961,5.3921,5.3972,5.3954,5.3911,5.3853,5.3938,5.3965,5.3975,5.3818,5.3816,5.3814,5.3813,0,0,5.4322,5.4253,5.4261,5.4244,5.4197,5.4195,5.4206,5.4185,5.4184,5.4158,5.4165,5.4153,5.4113,5.4097,5.4054,5.4068,5.4141,5.4022,5.402,5.4046,5.4194,5.4228,5.4242,5.4109,5.4111,5.4112,5.4197,0,5.4409,5.4424,5.4371,5.4399,5.4398,5.4327,5.4336,5.4308,5.4274,5.4268,5.4229,5.4222,5.4169,5.4159,5.417,5.413,5.417,5.4123,5.4114,5.4114,5.4126,5.4255,5.429,5.4373,5.4207,5.4209,5.421,0,5.4514,5.4495,5.4524,5.4476,5.4473,5.4483,5.446,5.4455,5.4421,5.4395,5.4378,5.4329,5.4335,5.428,5.4287,5.4256,5.4249,5.4229,5.4231,5.4228,5.4168,5.4256,5.4398,5.441,5.4226,5.4225,5.4223,0,5.4627,5.4609,5.4624,5.4612,5.4556,5.4564,5.4541,5.4505,5.4496,5.4475,5.4469,5.4449,5.4438,5.4424,5.437,5.4335,5.4384,5.4324,5.4362,5.4364,5.4376,5.4376,5.4518,5.4371,5.4371,5.4371,5.437,0,5.4731,5.4752,5.4675,5.4684,5.4705,5.4643,5.4665,5.4635,5.4603,5.4605,5.4541,5.4544,5.4473,5.4468,5.4426,5.4438,5.4434,5.4413,5.4401,5.4419,5.4422,5.4413,5.4406,5.4374,5.4373,5.4373,5.4372,0,5.4862,5.4811,5.4823,5.4769,5.4756,5.4774,5.4727,5.4734,5.4696,5.4699,5.4696,5.4637,5.4627,5.4572,5.455,5.4521,5.4549,5.4526,5.4561,5.4554,5.4595,5.4593,5.4738,5.4754,5.4597,5.4598,5.46,0,5.4932,5.4946,5.4894,5.4892,5.4872,5.4868,5.4859,5.4798,5.4791,5.4754,5.4765,5.475,5.4736,5.4724,5.4678,5.4661,5.4637,5.4689,5.4634,5.4651,5.4638,5.4638,5.4639,5.4701,5.4703,5.4705,5.4706,0,5.5061,5.5036,5.5026,5.5007,5.4999,5.4981,5.4959,5.496,5.4893,5.4888,5.4878,5.4867,5.4845,5.4831,5.4806,5.4781,5.4733,5.4724,5.4732,5.475,5.477,5.476,5.4594,5.4721,5.4719,5.4718,5.4717,5.4717,5.5164,5.5174,5.5139,5.513,5.5107,5.5089,5.5092,5.5055,5.5047,5.5025,5.4989,5.4984,5.495,5.4911,5.489,5.4885,5.4857,5.4869,5.4872,5.4876,5.4885,5.4771,5.488,5.488,5.4879,5.4879,5.4878,0,5.5291,5.5265,5.5257,5.523,5.5223,5.5179,5.5152,5.5149,5.5146,5.5119,5.5106,5.5095,5.5082,5.5036,5.5017,5.5022,5.5,5.502,5.5019,5.5014,5.4911,5.4906,5.5038,5.5038,5.5038,5.5038,5.5038,5.5038,5.5356,5.537,5.5341,5.5343,5.5317,5.5313,5.5302,5.5284,5.5262,5.5253,5.5242,5.5212,5.5177,5.5156,5.5142,5.5128,5.5125,5.5152,5.5132,5.5036,5.5021,5.5006,5.5002,5.5152,5.5152,5.5235,5.5236,5.5237]}]]